EDT,Max TemperatureF,Mean TemperatureF,Min TemperatureF,Max Dew PointF,MeanDew PointF,Min DewpointF,Max Humidity, Mean Humidity, Min Humidity, Max Sea Level PressureIn, Mean Sea Level PressureIn, Min Sea Level PressureIn, Max VisibilityMiles, Mean VisibilityMiles, Min VisibilityMiles, Max Wind SpeedMPH, Mean Wind SpeedMPH, Max Gust SpeedMPH,PrecipitationIn, CloudCover, Events, WindDirDegrees
2013-4-1,48,42,37,40,26,16,89,55,32,30.15,30.02,29.82,10,10,9,15,6,22,0.00,4,Rain,315
2013-4-2,48,36,25,24,17,12,81,47,25,30.30,30.24,30.15,10,10,10,15,6,22,0.00,0,,314
2013-4-3,48,36,24,24,17,13,88,51,24,30.45,30.38,30.29,10,10,10,14,3,23,0.00,0,,44
2013-4-4,55,43,32,31,20,15,78,45,22,30.36,30.17,30.03,10,10,10,10,5,,0.00,0,,51
2013-4-5,63,45,28,35,29,22,92,59,22,30.16,30.07,30.01,10,10,10,15,3,20,0.00,0,,355
2013-4-6,68,51,34,37,30,20,85,49,25,30.24,30.10,29.94,10,9,4,15,4,21,0.00,0,,169
2013-4-7,73,65,57,55,45,35,87,53,39,30.01,29.94,29.88,10,10,6,22,13,32,0.03,4,Rain-Thunderstorm,215
2013-4-8,73,62,52,54,53,50,100,74,49,30.01,29.95,29.90,10,9,4,25,7,34,0.00,4,,216
2013-4-9,81,66,50,58,54,50,100,69,40,30.06,30.00,29.93,10,10,6,23,6,33,0.00,2,,209
2013-4-10,82,72,63,63,59,57,84,63,46,29.96,29.89,29.78,10,10,10,22,10,30,0.00,3,,212
2013-4-11,68,62,59,63,59,56,100,91,73,29.83,29.71,29.56,10,7,2,12,6,18,0.52,7,Rain,173
2013-4-12,57,50,39,58,44,31,100,80,52,29.96,29.70,29.54,10,8,2,18,9,29,0.02,7,Rain,251
2013-4-13,60,48,37,36,34,30,86,62,39,30.06,30.01,29.97,10,10,10,20,7,30,0.00,2,,240
2013-4-14,72,54,36,48,40,35,100,64,33,30.09,29.99,29.88,10,10,8,9,3,,0.00,1,,135
2013-4-15,69,60,52,55,51,46,96,73,57,30.01,29.97,29.92,10,10,10,12,5,,0.00,5,,183
2013-4-16,81,64,48,64,57,49,100,86,56,30.22,30.08,29.98,10,7,1,29,6,46,0.39,4,Rain-Thunderstorm,240
2013-4-17,78,68,57,64,60,57,100,87,58,30.20,30.13,29.97,10,9,5,12,5,21,0.00,6,Rain-Thunderstorm,121
2013-4-18,82,72,61,63,57,51,87,61,39,29.96,29.81,29.62,10,10,10,28,13,39,0.00,1,,190
2013-4-19,73,56,39,63,43,31,100,76,49,30.03,29.72,29.46,10,8,1,24,16,32,0.69,7,Rain,247
2013-4-20,52,44,36,33,29,24,89,60,35,30.43,30.23,30.04,10,10,10,14,9,21,0.00,1,,271
2013-4-21,57,44,32,32,29,26,92,58,33,30.56,30.46,30.39,10,10,10,9,4,16,0.00,0,,49
2013-4-22,70,52,34,45,38,32,93,63,33,30.39,30.27,30.15,10,10,10,7,1,,0.00,0,,149
2013-4-23,70,56,41,53,47,41,100,75,53,30.16,30.06,29.88,10,9,2,16,3,,0.00,2,,195
2013-4-24,64,50,36,54,44,34,100,80,56,30.26,29.97,29.80,10,8,2,18,11,24,0.50,6,Rain,259
2013-4-25,60,44,30,38,33,28,100,80,37,30.41,30.30,30.27,10,6,0,16,2,24,0.00,1,Fog,243
2013-4-26,63,46,30,42,35,30,100,67,30,30.49,30.42,30.36,10,9,3,8,1,,0.00,0,Fog,140
2013-4-27,64,50,37,50,44,37,97,71,39,30.37,30.24,30.08,10,10,10,12,3,,0.00,5,,153
2013-4-28,70,60,54,60,55,52,100,89,73,30.06,29.93,29.83,10,9,5,14,6,18,0.07,7,Rain,182
2013-4-29,64,56,48,57,53,48,100,91,72,30.01,29.97,29.91,10,6,0,7,4,,0.01,6,Fog-Rain,197
2013-4-30,78,62,46,57,52,46,100,83,40,30.07,30.03,29.99,10,5,0,7,1,,0.00,1,Fog,160